Calaveras, Mexico

3:53 AM MST on February 23, 2017 (GMT -0700)
Gen Rafael Buelna International

Weather History for MMMZ - April, 2013

Change the Weather History Date:

Sunday, April 28, 2013

  Actual Average Record
Temperature  
Mean Temperature 68 °F -  
Max Temperature 82 °F 83 °F 89 °F (2006)
Min Temperature 55 °F 57 °F 51 °F (1999)
Cooling Degree Days 4    
Growing Degree Days 18 (Base 50)    
Moisture  
Dew Point 55 °F    
Average Humidity 62    
Maximum Humidity 85    
Minimum Humidity 37    
Precipitation  
Precipitation 0.00 in - - ()
Sea Level Pressure  
Sea Level Pressure 29.83 in    
Wind  
Wind Speed 7 mph ()    
Max Wind Speed 14 mph    
Max Gust Speed -    
Visibility 10.8 miles    
Events      
Averages and records for this station are not official NWS values.
T = Trace of Precipitation, MM = Missing Value Source: Averaged Metar Reports

Daily Weather History Graph

Daily Weather History Graph

Search for Another Location

Airport or City:

Trip Planner

Search our weather history database for the weather conditions in past years. The results will help you decide how hot, cold, wet, or windy it might be!

Date:

Astronomy

Apr. 28, 2013 Rise Set
Actual Time 6:33 AM MDT 7:31 PM MDT
Civil Twilight 6:10 AM MDT 7:55 PM MDT
Nautical Twilight 5:42 AM MDT 8:22 PM MDT
Astronomical Twilight 5:14 AM MDT 8:51 PM MDT
Moon 10:53 PM MDT (4/28) 9:05 AM MDT (4/28)
Length of Visible Light 13h 44m
Length of Day
12h 57m
Waning Gibbous, 88% of the Moon is Illuminated
Apr 28
Waning Gibbous
May 2
Last Quarter
May 9
New
May 17
First Quarter
May 24
Full

Hourly Weather History & Observations

Time (MDT) Temp. Heat Index Dew Point Humidity Pressure Visibility Wind Dir Wind Speed Gust Speed Precip Events Conditions
12:40 AM 59.0 °F - 51.8 °F 77% 29.88 in 10.0 mi ENE 6.9 mph - N/A   Clear
1:43 AM 57.2 °F - 51.8 °F 82% 29.86 in 10.0 mi East 8.1 mph - N/A   Clear
2:48 AM 57.2 °F - 51.8 °F 82% 29.86 in 10.0 mi ENE 6.9 mph - N/A   Clear
3:00 AM 68 °F - 65 °F 85% 29.86 in - ESE 2.2 mph - -  
3:47 AM 57.2 °F - 50.0 °F 77% 29.84 in 10.0 mi North 9.2 mph - N/A   Clear
4:43 AM 55.4 °F - 48.2 °F 77% 29.84 in 10.0 mi NNE 8.1 mph - N/A   Scattered Clouds
5:46 AM 55.4 °F - 48.2 °F 77% 29.86 in 10.0 mi North 6.9 mph - N/A   Partly Cloudy
6:43 AM 55.4 °F - 48.2 °F 77% 29.85 in 10.0 mi North 6.9 mph - N/A   Scattered Clouds
7:44 AM 59.0 °F - 50.0 °F 72% 29.86 in 10.0 mi NNE 8.1 mph - N/A   Scattered Clouds
8:40 AM 66.2 °F - 55.4 °F 68% 29.88 in 10.0 mi NE 6.9 mph - N/A   Scattered Clouds
9:40 AM 73.4 °F - 57.2 °F 57% 29.86 in 11.0 mi ENE 6.9 mph - N/A   Mostly Cloudy
10:43 AM 78.8 °F - 55.4 °F 44% 29.85 in 12.0 mi South 6.9 mph - N/A   Mostly Cloudy
11:40 AM 82.4 °F 82.5 °F 59.0 °F 45% 29.84 in 12.0 mi SSW 10.4 mph - N/A   Mostly Cloudy
12:00 PM 81 °F - 67 °F 53% 29.86 in - WSW 4.5 mph - -  
12:42 PM 82.4 °F 81.7 °F 55.4 °F 39% 29.84 in 12.0 mi South 10.4 mph - N/A   Mostly Cloudy
1:42 PM 82.4 °F 81.4 °F 53.6 °F 37% 29.82 in 12.0 mi SSW 10.4 mph - N/A   Scattered Clouds
2:40 PM 80.6 °F 80.8 °F 57.2 °F 45% 29.80 in 12.0 mi SW 11.5 mph - N/A   Scattered Clouds
3:00 PM 81 °F - 67 °F 54% 29.82 in - SW 6.7 mph - -  
3:41 PM 80.6 °F 80.8 °F 57.2 °F 45% 29.77 in 12.0 mi WSW 13.8 mph - N/A   Mostly Cloudy
4:41 PM 80.6 °F 81.1 °F 59.0 °F 48% 29.76 in 12.0 mi West 13.8 mph - N/A   Mostly Cloudy
5:41 PM 78.8 °F - 57.2 °F 47% 29.76 in 12.0 mi WSW 13.8 mph - N/A   Mostly Cloudy
6:44 PM 75.2 °F - 55.4 °F 50% 29.76 in 12.0 mi WSW 11.5 mph - N/A   Mostly Cloudy
7:41 PM 71.6 °F - 55.4 °F 57% 29.77 in 10.0 mi WSW 9.2 mph - N/A   Mostly Cloudy
8:41 PM 68.0 °F - 55.4 °F 64% 29.78 in 10.0 mi WSW 8.1 mph - N/A   Scattered Clouds
9:40 PM 66.2 °F - 53.6 °F 64% 29.79 in 10.0 mi WNW 6.9 mph - N/A   Partly Cloudy
10:41 PM 62.6 °F - 53.6 °F 72% 29.81 in 10.0 mi ESE 6.9 mph - N/A   Partly Cloudy
11:42 PM 60.8 °F - 51.8 °F 72% 29.82 in 10.0 mi East 6.9 mph - N/A   Scattered Clouds